TimeEDT,TemperatureF,Dew PointF,Humidity,Sea Level PressureIn,VisibilityMPH,Wind Direction,Wind SpeedMPH,Gust SpeedMPH,PrecipitationIn,Events,Conditions,WindDirDegrees,DateUTC
12:53 AM,32.0,23.0,69,30.30,10.0,Calm,Calm,-,N/A,,Clear,0,2013-03-29 04:53:00
1:53 AM,28.9,21.9,75,30.31,10.0,Calm,Calm,-,N/A,,Clear,0,2013-03-29 05:53:00
2:53 AM,28.0,23.0,81,30.31,10.0,Calm,Calm,-,N/A,,Clear,0,2013-03-29 06:53:00
3:53 AM,26.1,21.0,81,30.30,10.0,Calm,Calm,-,N/A,,Clear,0,2013-03-29 07:53:00
4:53 AM,25.0,21.0,85,30.30,10.0,Calm,Calm,-,N/A,,Clear,0,2013-03-29 08:53:00
5:53 AM,25.0,19.9,81,30.31,10.0,Calm,Calm,-,N/A,,Clear,0,2013-03-29 09:53:00
6:53 AM,24.1,21.0,88,30.32,10.0,Calm,Calm,-,N/A,,Clear,0,2013-03-29 10:53:00
7:53 AM,25.0,21.9,88,30.33,10.0,Calm,Calm,-,N/A,,Clear,0,2013-03-29 11:53:00
8:53 AM,30.9,25.0,79,30.33,10.0,Calm,Calm,-,N/A,,Clear,0,2013-03-29 12:53:00
9:53 AM,37.0,27.0,67,30.33,10.0,Calm,Calm,-,N/A,,Partly Cloudy,0,2013-03-29 13:53:00
10:53 AM,43.0,26.1,51,30.33,10.0,Calm,Calm,-,N/A,,Scattered Clouds,0,2013-03-29 14:53:00
11:53 AM,48.0,26.1,42,30.32,10.0,SW,5.8,-,N/A,,Mostly Cloudy,220,2013-03-29 15:53:00
12:53 PM,51.1,24.1,35,30.30,10.0,WNW,8.1,-,N/A,,Mostly Cloudy,300,2013-03-29 16:53:00
1:53 PM,51.1,23.0,33,30.27,10.0,West,9.2,-,N/A,,Mostly Cloudy,270,2013-03-29 17:53:00
2:53 PM,51.1,19.9,29,30.27,10.0,West,15.0,-,N/A,,Mostly Cloudy,260,2013-03-29 18:53:00
3:53 PM,51.1,21.9,32,30.25,10.0,WSW,12.7,20.7,N/A,,Mostly Cloudy,240,2013-03-29 19:53:00
4:53 PM,48.0,32.0,54,30.26,10.0,SW,17.3,27.6,N/A,,Mostly Cloudy,220,2013-03-29 20:53:00
5:53 PM,44.1,35.1,71,30.27,10.0,SW,18.4,-,N/A,,Overcast,220,2013-03-29 21:53:00
6:53 PM,42.1,35.1,76,30.27,10.0,SW,10.4,-,N/A,,Overcast,220,2013-03-29 22:53:00
7:53 PM,42.1,36.0,79,30.26,10.0,SW,9.2,-,N/A,,Overcast,220,2013-03-29 23:53:00
8:53 PM,41.0,36.0,82,30.27,10.0,SW,10.4,-,N/A,,Overcast,220,2013-03-30 00:53:00
9:33 PM,41.0,37.0,86,30.27,10.0,WSW,5.8,-,0.00,,Overcast,240,2013-03-30 01:33:00
9:51 PM,41.0,37.4,87,30.27,10.0,SW,3.5,-,0.00,,Overcast,220,2013-03-30 01:51:00
9:53 PM,41.0,37.0,86,30.26,10.0,SW,3.5,-,0.00,,Overcast,220,2013-03-30 01:53:00
10:53 PM,41.0,37.0,86,30.26,10.0,Calm,Calm,-,0.00,Rain,Light Rain,0,2013-03-30 02:53:00
11:53 PM,39.0,37.0,93,30.23,8.0,Calm,Calm,-,0.00,Rain,Light Rain,0,2013-03-30 03:53:00